Location: Newark
(44.4156°N, 12.1972°E)
Time: 10:31:46
(UTC+00:00)

STARLINK-1100 - Pass Details

Date: 04 February 2020
Orbit: 348 x 351 km, 53.0° (Epoch: 18 February)

Event Time Altitude Azimuth Distance (km) Brightness Sun altitude
Rises 17:12:37 0° 291° (WNW) 2,164 7.7 -9.1°
Reaches altitude 10° 17:15:07 10° 268° (W) 1,317 7.1 -9.5°
Maximum altitude 17:17:02 16° 227° (SW) 1,020 5.9 -9.9°
Drops below altitude 10° 17:18:57 10° 186° (S) 1,311 5.8 -10.2°
Sets 17:21:25 0° 164° (SSE) 2,149 6.6 -10.6°
